User: anonymous
Location: Unspecified
(0.0000°N, 0.0000°E)
Time: 21:34:57
(UTC+00:00)
Language:

PROBA 2 - Orbit

View from above orbital plane
View from above orbital plane
View from above satellite
View from above satellite

Ground track
Ground track

The orbit data is extracted from the following two-line orbital elements,

1 36037U 09059B   14294.16240340  .00000473  00000-0  12621-3 0  5504
2 36037 098.2805 125.3497 0014458 083.6233 053.7989 14.52664865263280
Epoch (UTC): 21 October 2014 03:53:51
Eccentricity: 0.0014458
inclination: 98.2805°
perigee height: 707 km
apogee height: 727 km
right ascension of ascending node: 125.3497°
argument of perigee: 83.6233°
revolutions per day: 14.52664865
mean anomaly at epoch: 53.7989°
orbit number at epoch: 26328

The dashed part of the orbit path shows where the satellite is in the earth's shadow,  

DLR